FW7184 Weather Reports


Display with metric or nautical units.
time (UTC)temp
F
wind
direction
speed
MPH
gust
MPH
rain 1hr
in
rain 24hr
in
rain mn
in
humidity
%
barometer
mb
20260503231856 57 29 0.0 1.0 0.00 0.00 0.00 37 1010.4
20260503231354 57 184 3.0 3.0 0.00 0.00 0.00 36 1010.2
20260503230850 57 112 1.0 1.0 0.00 0.00 0.00 35 1010.3
20260503230346 57 97 1.0 1.0 0.00 0.00 0.00 35 1010.3
20260503225844 57 100 1.0 2.0 0.00 0.00 0.00 34 1010.1
20260503225340 57 126 0.0 0.0 0.00 0.00 0.00 34 1010.3
20260503224836 58 51 1.0 1.0 0.00 0.00 0.00 35 1010.1
20260503224333 58 77 0.0 1.0 0.00 0.00 0.00 34 1010.1
20260503223826 58 91 1.0 1.0 0.00 0.00 0.00 33 1010.2
20260503223323 58 80 1.0 1.0 0.00 0.00 0.00 31 1010.1
20260503222818 58 127 1.0 1.0 0.00 0.00 0.00 32 1010.2
20260503222317 58 93 2.0 5.0 0.00 0.00 0.00 31 1010.1
20260503221815 58 117 1.0 1.0 0.00 0.00 0.00 32 1009.9
20260503221314 58 68 2.0 2.0 0.00 0.00 0.00 32 1010.1
20260503220809 58 118 1.0 1.0 0.00 0.00 0.00 31 1010.0
20260503220306 58 105 0.0 1.0 0.00 0.00 0.00 32 1010.2
20260503215803 58 30 3.0 6.0 0.00 0.00 0.00 32 1010.0
20260503215300 58 119 1.0 2.0 0.00 0.00 0.00 31 1010.0
20260503214758 58 128 0.0 1.0 0.00 0.00 0.00 32 1010.2
20260503214254 58 112 0.0 1.0 0.00 0.00 0.00 31 1010.1
20260503213752 58 147 1.0 1.0 0.00 0.00 0.00 30 1010.2
20260503213249 58 75 3.0 7.0 0.00 0.00 0.00 31 1010.2
20260503212746 57 20 3.0 6.0 0.00 0.00 0.00 31 1010.0
20260503212244 57 181 0.0 2.0 0.00 0.00 0.00 32 1010.2
20260503211741 57 134 1.0 3.0 0.00 0.00 0.00 32 1009.9
20260503211237 58 138 2.0 3.0 0.00 0.00 0.00 32 1009.8
20260503210732 58 134 0.0 1.0 0.00 0.00 0.00 32 1010.0
20260503210230 58 120 0.0 0.0 0.00 0.00 0.00 35 1009.9
20260503205725 58 115 0.0 1.0 0.00 0.00 0.00 34 1009.9
20260503205222 58 79 1.0 2.0 0.00 0.00 0.00 34 1010.0
20260503204718 58 75 2.0 3.0 0.00 0.00 0.00 35 1009.9
20260503204216 58 105 1.0 2.0 0.00 0.00 0.00 34 1010.0
20260503203713 58 199 3.0 5.0 0.00 0.00 0.00 34 1009.8
20260503203211 58 188 3.0 3.0 0.00 0.00 0.00 34 1009.9
20260503202708 58 107 2.0 2.0 0.00 0.00 0.00 35 1009.8
20260503202206 57 305 2.0 5.0 0.00 0.00 0.00 33 1010.0
20260503201703 57 216 1.0 1.0 0.00 0.00 0.00 36 1009.9
20260503201200 57 143 4.0 11.0 0.00 0.00 0.00 34 1010.1
20260503200656 57 84 1.0 2.0 0.00 0.00 0.00 36 1009.8
20260503200153 57 62 0.0 0.0 0.00 0.00 0.00 36 1009.9
20260503195650 56 33 3.0 3.0 0.00 0.00 0.00 34 1010.1
20260503195147 56 128 1.0 1.0 0.00 0.00 0.00 35 1010.2
20260503194644 57 92 0.0 1.0 0.00 0.00 0.00 36 1010.3
20260503194139 57 84 0.0 1.0 0.00 0.00 0.00 37 1010.4
20260503193637 57 52 5.0 10.0 0.00 0.00 0.00 36 1010.5
20260503193132 57 73 0.0 1.0 0.00 0.00 0.00 37 1010.4
20260503192628 57 95 0.0 1.0 0.00 0.00 0.00 37 1010.4
20260503192124 57 37 2.0 3.0 0.00 0.00 0.00 36 1010.6
20260503191621 56 111 2.0 2.0 0.00 0.00 0.00 39 1010.7
20260503191118 55 170 2.0 2.0 0.00 0.00 0.00 39 1010.4
20260503190615 55 103 1.0 2.0 0.00 0.00 0.00 38 1010.5
20260503190112 56 22 4.0 6.0 0.00 0.00 0.00 37 1010.5
20260503185608 57 124 1.0 1.0 0.00 0.00 0.00 40 1010.6
20260503185108 56 190 1.0 1.0 0.00 0.00 0.00 39 1010.7
20260503184604 54 79 3.0 6.0 0.00 0.00 0.00 38 1010.7
20260503184101 54 119 0.0 0.0 0.00 0.00 0.00 39 1010.8
20260503183557 54 119 0.0 1.0 0.00 0.00 0.00 41 1010.9
20260503183055 54 63 5.0 10.0 0.00 0.00 0.00 39 1010.9
20260503182553 53 17 3.0 5.0 0.00 0.00 0.00 42 1011.1
20260503182050 53 124 2.0 5.0 0.00 0.00 0.00 42 1011.1
20260503181547 53 55 0.0 0.0 0.00 0.00 0.00 42 1010.9
20260503181044 53 134 0.0 0.0 0.00 0.00 0.00 43 1010.8
20260503180541 53 110 0.0 1.0 0.00 0.00 0.00 42 1011.2
20260503180038 53 107 1.0 1.0 0.00 0.00 0.00 41 1011.1
20260503175535 52 45 1.0 1.0 0.00 0.00 0.00 43 1011.2
20260503175032 54 14 2.0 3.0 0.00 0.00 0.00 43 1010.9
20260503174529 54 126 0.0 1.0 0.00 0.00 0.00 42 1011.2
20260503174025 54 9 2.0 3.0 0.00 0.00 0.00 44 1011.0
20260503173515 53 300 6.0 10.0 0.00 0.00 0.00 42 1011.1
20260503173012 52 159 2.0 3.0 0.00 0.00 0.00 43 1011.3
20260503172510 52 117 3.0 3.0 0.00 0.00 0.00 43 1011.5
20260503172006 52 39 5.0 6.0 0.00 0.00 0.00 43 1011.3
20260503171503 52 80 3.0 5.0 0.00 0.00 0.00 43 1011.5
20260503171001 51 149 1.0 2.0 0.00 0.00 0.00 44 1011.2
20260503170457 52 66 3.0 3.0 0.00 0.00 0.00 44 1011.2
20260503150849 49 44 2.0 5.0 0.00 0.00 0.00 50 1011.6
20260503150345 49 126 0.0 1.0 0.00 0.00 0.00 46 1011.8
20260503140309 48 116 0.0 0.0 0.00 0.00 0.00 58 1012.0
20260503131239 47 111 1.0 1.0 0.00 0.00 0.00 57 1011.9
20260503130736 46 60 3.0 6.0 0.00 0.00 0.00 57 1012.1
20260503130234 46 77 1.0 2.0 0.00 0.00 0.00 59 1011.8
20260503120200 44 139 1.0 1.0 0.00 0.00 0.00 64 1011.8
20260503110627 42 124 0.0 0.0 0.00 0.00 0.00 67 1011.7
20260503110124 42 113 1.0 2.0 0.00 0.00 0.00 67 1011.5
20260503081440 43 115 0.0 0.0 0.00 0.00 0.00 65 1010.7
20260503080937 43 7 0.0 1.0 0.00 0.00 0.00 67 1010.7
20260503080433 43 106 1.0 1.0 0.00 0.00 0.00 66 1010.8
20260503072910 43 54 0.0 1.0 0.00 0.00 0.00 66 1010.5
20260503072408 43 110 1.0 1.0 0.00 0.00 0.00 65 1010.6
20260503071904 43 103 0.0 0.0 0.00 0.00 0.00 65 1011.0
20260503071401 43 119 0.0 0.0 0.00 0.00 0.00 64 1010.9
20260503070857 44 136 1.0 1.0 0.00 0.00 0.00 64 1010.8
20260503070355 44 115 0.0 0.0 0.00 0.00 0.00 64 1010.8
20260503060320 46 125 1.0 1.0 0.00 0.00 0.00 60 1011.0
20260503054808 46 110 1.0 1.0 0.00 0.00 0.00 58 1011.2
20260503054304 46 116 1.0 1.0 0.00 0.00 0.00 58 1011.3
20260503053802 46 108 0.0 1.0 0.00 0.00 0.00 59 1011.3
20260503053300 46 101 0.0 0.0 0.00 0.00 0.00 58 1011.2
20260503052756 46 355 2.0 3.0 0.00 0.00 0.00 58 1011.5
20260503052254 46 119 1.0 1.0 0.00 0.00 0.00 57 1011.5
20260503051749 46 106 1.0 1.0 0.00 0.00 0.00 57 1011.3
20260503051246 47 91 0.0 1.0 0.00 0.00 0.00 57 1011.2
20260503050742 47 81 0.0 0.0 0.00 0.00 0.00 57 1011.3
20260503050239 47 113 0.0 1.0 0.00 0.00 0.00 56 1011.5
20260503045736 47 119 0.0 0.0 0.00 0.00 0.00 57 1011.3
20260503045234 47 116 1.0 1.0 0.00 0.00 0.00 57 1011.2
20260503044730 47 56 2.0 3.0 0.00 0.00 0.00 56 1011.5
20260503044228 47 51 1.0 3.0 0.00 0.00 0.00 55 1011.6
20260503043724 47 23 1.0 2.0 0.00 0.00 0.00 56 1011.9
20260503043222 47 44 0.0 1.0 0.00 0.00 0.00 56 1011.6
20260503042717 48 94 1.0 2.0 0.00 0.00 0.00 56 1011.7
20260503042214 48 71 2.0 3.0 0.00 0.00 0.00 55 1011.6
20260503041710 48 84 1.0 1.0 0.00 0.00 0.00 56 1011.8
20260503041208 48 144 0.0 1.0 0.00 0.00 0.00 55 1011.7
20260503040705 48 124 0.0 0.0 0.00 0.00 0.00 56 1011.8
20260503040203 48 133 0.0 0.0 0.00 0.00 0.00 56 1011.6
20260503035659 48 43 1.0 2.0 0.00 0.05 0.05 55 1011.7
20260503035157 48 119 0.0 0.0 0.00 0.05 0.05 55 1011.7
20260503034654 48 90 1.0 1.0 0.00 0.05 0.05 54 1011.8
20260503034151 49 94 1.0 1.0 0.00 0.05 0.05 54 1011.6
20260503033648 49 108 0.0 1.0 0.00 0.05 0.05 54 1011.5
20260503033146 49 96 0.0 1.0 0.00 0.05 0.05 55 1011.7
20260503032644 49 84 1.0 2.0 0.00 0.05 0.05 53 1011.7
20260503032143 49 116 0.0 1.0 0.00 0.05 0.05 55 1011.7
20260503031639 49 70 1.0 2.0 0.00 0.05 0.05 53 1011.6
20260503031137 49 82 2.0 2.0 0.00 0.05 0.05 55 1011.7
20260503030633 49 64 0.0 1.0 0.00 0.05 0.05 54 1011.7
20260503030130 49 132 1.0 2.0 0.00 0.05 0.05 53 1011.7
20260503025626 49 113 1.0 2.0 0.00 0.05 0.05 56 1011.7
20260503025119 49 120 0.0 0.0 0.00 0.05 0.05 60 1011.6
20260503024615 49 122 0.0 0.0 0.00 0.05 0.05 58 1011.5
20260503024112 49 111 0.0 0.0 0.00 0.05 0.05 57 1011.6
20260503023609 49 122 0.0 0.0 0.00 0.05 0.05 56 1011.6
20260503023106 50 117 0.0 0.0 0.00 0.05 0.05 57 1012.0
20260503022602 50 120 0.0 0.0 0.00 0.05 0.05 54 1011.7
20260503022056 50 105 1.0 1.0 0.00 0.05 0.05 54 1011.9
20260503021554 50 112 0.0 1.0 0.00 0.05 0.05 53 1011.8
20260503021051 50 114 0.0 0.0 0.00 0.05 0.05 52 1011.9
20260503020548 50 108 0.0 1.0 0.00 0.05 0.05 52 1011.8
20260503020044 50 121 0.0 0.0 0.00 0.05 0.05 53 1011.8
20260503015541 51 120 0.0 0.0 0.00 0.05 0.05 53 1011.8
20260503015039 51 122 0.0 0.0 0.00 0.05 0.05 53 1011.9
20260503014535 51 115 0.0 0.0 0.00 0.05 0.05 53 1012.0
20260503014033 51 115 0.0 0.0 0.00 0.05 0.05 52 1011.8
20260503013530 51 123 0.0 0.0 0.00 0.05 0.05 52 1011.8
20260503013027 51 121 0.0 0.0 0.00 0.05 0.05 51 1011.7
20260503012525 51 103 1.0 1.0 0.00 0.05 0.05 51 1011.8
20260503012021 52 114 0.0 0.0 0.00 0.05 0.05 49 1011.7
20260503011517 52 122 0.0 0.0 0.00 0.05 0.05 49 1011.7
20260503011014 52 116 0.0 0.0 0.00 0.05 0.05 48 1011.5
20260503010511 52 116 1.0 1.0 0.00 0.05 0.05 46 1011.5
20260503010009 52 125 0.0 0.0 0.00 0.05 0.05 46 1011.6
20260503005506 53 96 1.0 1.0 0.00 0.05 0.05 44 1011.5
20260503005003 53 105 0.0 0.0 0.00 0.05 0.05 44 1011.2
20260503004459 53 116 0.0 1.0 0.00 0.05 0.05 43 1011.3
20260503003957 53 121 0.0 0.0 0.00 0.05 0.05 44 1011.2
20260503003454 53 109 1.0 1.0 0.00 0.05 0.05 44 1011.2
20260503002950 53 117 0.0 1.0 0.00 0.05 0.05 44 1011.2
20260503002448 53 106 0.0 0.0 0.00 0.05 0.05 44 1011.0
20260503001943 53 78 0.0 1.0 0.00 0.05 0.05 43 1011.2
20260503001440 53 104 2.0 3.0 0.00 0.05 0.05 43 1011.2
20260503000938 53 77 1.0 2.0 0.00 0.05 0.05 44 1010.9
20260503000437 54 27 3.0 3.0 0.00 0.05 0.05 43 1011.2
20260502235932 54 95 0.0 1.0 0.00 0.05 0.05 44 1011.0
20260502235429 54 62 2.0 2.0 0.00 0.05 0.05 43 1011.0
20260502234926 54 34 2.0 2.0 0.00 0.05 0.05 42 1010.9
20260502234422 54 121 1.0 2.0 0.00 0.05 0.05 42 1010.9
20260502233920 55 115 1.0 2.0 0.00 0.05 0.05 41 1010.8
20260502233415 55 21 1.0 1.0 0.00 0.05 0.05 41 1010.8
20260502232913 55 146 0.0 1.0 0.00 0.05 0.05 41 1010.6
20260502232409 55 162 0.0 1.0 0.00 0.05 0.05 40 1010.6